Location: Gleizolles
(44.4833°N, 6.7667°E)
Time: 04:15:31
(UTC+00:00)

Vanguard 1 Rocket - Pass Details

Date: 30 June 2024
Orbit: 650 x 4219 km, 34.3° (Epoch: 15 July)

Event Time Altitude Azimuth Distance (km) Brightness Sun altitude
Rises 00:55:11 0° 251° (WSW) 4,863 - -20.0°
Exits shadow 00:57:03 - 248° (WSW) 4,395 10.5 -19.9°
Reaches altitude 10° 00:57:49 10° 247° (WSW) 4,215 10.4 -19.9°
Maximum altitude 01:09:53 59° 171° (S) 3,155 9.8 -19.1°
Drops below altitude 10° 01:31:57 10° 101° (E) 7,211 12.2 -17.4°
Sets 01:38:14 0° 98° (E) 8,420 12.6 -16.9°
